Regional Weather Roundup
Issued by NWS

Home | Current Version | Previous Version | Text Only | Print | Product List | Glossary On
Versions: 1 2 3 4 5 6 7 8 9 10 11 12 13 14 15 16 17 18 19 20 21 22 23 24 25 26 27
000
ASUS45 KSLC 181310
RWRUT

UTAH REGIONAL WEATHER ROUNDUP
NATIONAL WEATHER SERVICE SALT LAKE CITY UT
600 AM MST MON DEC 18 2017

UTZ001>011-023>025-181400-

NORTHERN UTAH

CITY           SKY/WX    TMP DP  RH WIND       PRES   REMARKS
BRIGHAM CITY   CLOUDY    29  24  79 CALM      30.28R
DUGWAY         PTCLDY    14  12  91 SE5       30.26  WCI   7
HILL AFB       MOCLDY    25  18  74 E8        30.25R WCI  16
LOGAN          CLOUDY    31  24  75 S3        30.25S
OGDEN          CLOUDY    26  19  74 S7        30.25S WCI  18
SALT LAKE CITY MOCLDY    29  22  75 SE7       30.26S WCI  22
TOOELE VALLEY  MOCLDY    27  19  74 CALM      30.27S
WENDOVER       MOCLDY    19  14  81 CALM      30.26S
HEBER CITY       N/A     14  12  92 CALM      30.23S
WEST JORDAN    MOCLDY    26  24  93 S8        30.26S WCI  17

$$

UTZ011>015-024>027-181400-

CENTRAL/NORTHEAST UTAH

CITY           SKY/WX    TMP DP  RH WIND       PRES   REMARKS
PROVO AIRPORT  MOCLDY    18  15  88 CALM      30.28F
MOAB/CANYONLAN MOCLDY    15   5  64 CALM      30.20R
DELTA          MOCLDY    16  14  93 NE6       30.27R WCI   7
PRICE          PTCLDY    20  13  74 CALM      30.18R
ROOSEVELT      CLOUDY    16  10  79 W3        30.24R
VERNAL         CLOUDY    18  12  77 W6        30.21S WCI  10

$$

UTZ013>016-019>022-027-181400-

SOUTHERN UTAH

CITY           SKY/WX    TMP DP  RH WIND       PRES   REMARKS
BRYCE CANYON   MOCLDY     8   5  87 NW6       30.19S WCI  -2
CEDAR CITY     MOCLDY    13  13 100 E5        30.20S WCI   5
MILFORD        MOCLDY    11   7  84 SW3       30.24S
ST GEORGE      MOSUNNY   28  17  63 E5        30.23S WCI  23
HANKSVILLE     MOCLDY    14   7  73 CALM      30.25R
BLANDING         N/A     23   7  50 NE3       30.23R

$$

REGIONAL REPORTS     COLORADO/ARIZONA

CITY           SKY/WX    TMP DP  RH WIND       PRES   REMARKS
CRAIG, CO      CLOUDY    18  13  80 CALM      30.17S
GRAND JUNCTION CLOUDY    20  10  65 SE9       30.21R WCI   9
RIFLE, CO      CLOUDY    14   7  73 CALM      30.24R
MONTROSE, CO   CLOUDY    15   6  67 SE8       30.23S WCI   4
CORTEZ, CO     CLOUDY    11   1  64 E7        30.17R WCI   0
COLORADO CITY    N/A     12  10  92 SE7       30.21S WCI   2
PAGE, AZ       MOCLDY    28  16  60 W3        30.19R
GRAND CANYON   MOCLDY     8  -2  63 CALM      30.17R
KINGMAN, AZ    CLEAR     27  15  61 E7        30.15S WCI  19
FLAGSTAFF, AZ  CLEAR     15   6  67 CALM      30.14R

$$

REGIONAL REPORTS    NEVADA/IDAHO/WYOMING

CITY           SKY/WX    TMP DP  RH WIND       PRES   REMARKS
LAS VEGAS, NV  PTCLDY    38  16  40 W3        30.19R
ELY, NY        PTCLDY    10   6  84 S9        30.22S WCI  -3
ELKO, NV       PTCLDY    15  11  83 CALM      30.27R
POCATELLO, ID  CLOUDY    34  22  61 S10       30.19F WCI  26
BURLEY, ID     PTCLDY    32  19  58 SW13      30.17F WCI  22
FORT BRIDGER,  CLOUDY    28  14  54 SW10      30.17S WCI  19
EVANSTON, WY   CLOUDY    19  13  77 SW12      30.16R WCI   7
ROCK SPRINGS,  CLOUDY    25  13  60 SW22      30.11S WCI  10

$$




USA.gov is the U.S. government's official web portal to all federal, state and local government web resources and services.